Temperature
13 13 13 13 13 13 13 13 13 12 12 12 12 12 12 12 12 12 11 11 11 11 10 10 9 9 9 9 9 9 8 8 8 8 8 8 8 8 7 7 7 7 8
13 13 13 13 13 13 13 12 12 12 12 12 12 12 11 11 11 11 11 11 11 10 10 10 9 9 9 8 8 8 8 8 7 7 8 7 7 7 7 7 7 7 7
13 13 13 12 12 12 12 12 12 12 12 12 12 11 11 11 11 11 11 10 10 10 10 9 9 9 8 8 8 7 7 7 7 7 7 7 7 7 7 7 7 7 7
13 13 12 12 12 12 12 12 12 11 11 11 11 11 11 11 11 10 10 10 10 10 9 9 9 8 8 8 7 7 7 7 7 7 7 7 7 7 6 6 6 6 6
12 12 12 12 12 12 12 12 11 11 11 11 11 11 11 11 10 10 10 10 9 9 9 9 8 8 8 7 7 7 7 6 6 6 6 7 6 6 6 6 6 6 6
12 12 12 12 12 12 12 11 11 11 11 11 11 11 10 10 10 10 9 9 9 9 8 8 8 8 8 7 7 7 6 6 6 6 6 6 6 6 6 6 6 6 6
12 12 12 12 12 12 11 11 11 11 11 11 10 10 10 10 9 9 9 9 8 8 8 8 8 7 7 7 7 6 6 6 6 6 6 6 6 6 6 6 6 5 5
12 12 12 12 11 11 11 11 11 11 10 10 10 9 9 9 9 9 8 8 8 8 7 7 7 7 7 7 6 6 6 6 5 5 5 5 5 5 5 5 5 5 5
11 11 11 11 11 11 11 11 11 10 10 10 9 9 8 8 8 8 8 8 7 7 7 7 7 7 6 6 6 6 5 5 5 5 5 5 5 5 5 5 5 5 5
11 11 11 11 11 11 11 10 10 10 10 9 9 8 8 7 7 7 7 7 7 7 7 7 6 6 6 6 6 5 5 5 5 5 5 4 4 4 4 4 4 4 4
10 10 10 10 10 10 10 10 10 9 9 9 8 8 8 7 7 6 6 7 7 7 6 6 6 6 5 5 5 5 5 5 4 4 4 4 4 4 4 4 4 4 4
10 10 10 10 10 10 10 10 9 9 9 8 8 7 7 7 6 6 5 6 6 6 6 6 6 5 5 5 5 4 4 4 4 4 4 3 4 3 4 4 3 3 3
10 10 10 9 9 9 9 9 9 9 8 8 8 7 7 6 6 5 5 5 5 5 5 5 5 5 5 4 4 4 4 4 4 3 3 3 3 3 3 3 3 3 3
10 9 9 9 9 9 9 9 8 8 8 7 7 7 6 6 6 5 5 4 4 4 5 5 5 5 4 4 4 4 4 4 3 3 3 3 3 3 3 3 3 2 2
9 9 9 9 9 9 8 8 8 7 7 7 6 6 6 5 5 5 5 4 4 3 3 4 4 4 4 4 4 4 3 3 3 3 3 2 2 2 2 2 2 2 2
8 8 8 8 8 8 8 8 7 7 7 6 6 5 5 5 5 5 4 4 3 3 3 3 3 4 3 3 3 3 3 3 3 3 2 2 2 2 2 2 2 1 1
8 8 8 8 7 7 7 7 7 6 6 6 5 5 5 4 4 4 4 4 3 3 3 3 3 3 3 3 3 3 3 3 2 2 2 2 1 1 1 1 1 1 1
7 7 7 7 7 7 7 6 6 6 6 5 5 4 4 4 4 4 4 3 3 3 2 2 3 3 3 3 3 3 2 2 2 2 2 1 1 1 1 1 1 1 1
7 6 6 7 6 6 6 6 6 5 5 4 4 4 4 4 3 3 3 3 3 3 2 2 2 2 2 2 2 2 2 2 2 2 1 1 1 1 1 1 0 0 0
6 6 6 6 6 6 5 5 5 4 4 4 4 3 3 3 3 3 3 3 2 2 2 2 2 2 2 2 2 2 2 2 1 1 1 1 1 1 0 0 0 0 -0
5 5 5 5 5 5 5 4 4 4 4 3 3 3 3 2 2 2 2 2 2 2 2 2 1 1 1 1 1 1 0 1 1 1 1 1 0 0 0 0 0 -0 -0
5 5 5 4 4 4 4 4 3 3 3 3 3 3 2 2 2 2 2 2 2 2 1 1 1 1 1 1 0 -0 -0 -1 -0 0 -0 0 0 0 0 -0 -0 -0 -0
4 4 4 4 4 3 3 3 3 3 3 2 2 2 2 2 2 2 2 2 2 1 1 1 1 0 0 -0 -0 -0 -1 -1 -1 -1 -1 -1 -0 -0 -0 -0 -0 -0 -1
3 3 3 3 3 3 2 3 2 2 2 2 2 2 2 2 1 1 1 1 2 1 1 1 0 0 -0 -0 -1 -1 -1 -1 -1 -1 -2 -2 -1 -1 -1 -0 -1 -1 -1
2 2 2 2 2 2 2 2 2 2 2 2 1 1 1 1 1 1 1 1 1 1 1 0 0 -0 -0 -1 -1 -1 -2 -2 -2 -1 -2 -2 -2 -2 -1 -1 -1 -1 -1
1 1 1 1 1 1 1 1 1 1 1 1 1 1 1 1 1 0 0 0 0 0 0 0 0 -0 -0 -1 -1 -2 -2 -3 -3 -3 -2 -2 -2 -2 -2 -1 -1 -1 -1
Wind_Speed
4 5 5 5 5 5 3 3 3 4 4 3 4 5 5 6 7 7 6 6 6 6 7 8 9 9 10 11 11 12 12 12 13 13 14 14 14 15 15 16 16 16 16
6 5 5 4 5 5 4 4 4 3 3 3 3 4 4 5 6 6 6 5 5 5 6 7 8 9 10 11 11 12 12 13 13 14 14 15 15 15 16 16 16 16 17
7 7 5 4 4 5 5 5 4 3 2 2 2 3 3 3 3 4 4 4 4 5 5 6 8 9 10 11 11 12 12 13 13 14 15 15 15 16 16 17 17 17 17
8 7 5 4 5 5 4 3 2 2 2 1 1 2 2 2 2 3 3 3 3 3 4 5 7 8 10 10 11 12 13 13 14 14 15 16 16 16 17 17 17 17 17
8 7 5 5 6 4 3 2 2 2 2 1 1 0 0 0 0 1 2 2 2 2 3 4 6 8 9 10 11 12 13 14 14 15 16 16 17 17 17 17 18 18 18
8 7 6 5 5 3 2 2 2 2 1 1 1 1 1 1 1 1 0 0 1 2 3 3 4 6 8 10 11 12 13 14 15 15 16 17 17 18 18 18 18 19 19
7 6 5 4 4 3 2 3 2 2 1 1 1 1 2 2 1 1 1 0 1 2 3 4 4 5 6 8 10 12 14 15 15 16 16 17 18 18 19 19 19 19 19
6 6 5 4 3 3 3 2 2 1 1 1 1 0 2 2 2 2 1 1 1 1 2 4 4 5 5 6 8 11 13 15 16 16 17 18 18 19 19 19 19 20 20
6 5 5 4 4 3 3 2 2 2 1 0 1 2 1 2 2 2 2 1 1 2 2 3 4 5 6 6 7 10 13 15 16 17 18 18 19 19 20 20 20 20 20
6 6 5 4 4 3 3 2 2 1 2 1 0 0 1 1 0 3 3 2 2 3 3 3 4 5 5 6 8 11 13 15 16 17 18 19 19 20 20 21 21 21 21
5 5 5 4 4 3 3 3 2 1 1 1 1 0 1 1 1 1 3 4 3 3 3 4 3 3 5 6 8 10 14 15 16 18 18 19 19 20 21 21 21 21 20
4 5 5 4 4 3 3 3 3 2 2 1 0 0 0 0 1 1 3 4 5 4 4 3 2 3 5 6 8 13 15 15 16 17 18 18 19 20 21 21 21 21 20
4 5 5 5 4 3 3 3 3 2 2 2 1 0 0 1 1 1 2 4 4 4 2 2 2 3 5 6 9 14 14 16 17 17 17 18 19 19 20 20 20 20 20
4 5 6 5 5 5 4 3 3 2 2 2 1 0 1 1 1 1 1 2 4 4 3 4 3 2 5 8 11 13 12 16 17 17 17 18 18 19 19 20 20 20 20
4 5 5 5 4 4 4 3 2 2 2 2 1 1 0 1 1 1 1 1 2 4 6 4 3 4 7 8 11 11 12 15 17 17 17 18 18 18 19 19 20 19 20
4 5 5 5 4 4 4 3 2 2 2 1 1 1 1 1 1 1 1 2 2 4 5 4 5 6 8 9 12 12 12 16 16 17 18 18 18 18 18 18 19 19 20
4 4 5 5 5 4 4 3 3 2 2 1 1 1 1 1 1 1 1 2 3 3 6 7 6 6 7 7 9 11 12 11 12 17 18 18 18 18 17 17 18 19 19
4 4 4 4 4 4 4 4 3 3 3 2 1 1 1 1 2 2 2 2 3 3 5 8 7 7 7 7 7 8 10 11 11 15 16 18 18 17 17 17 18 19 19
3 3 4 4 4 4 3 3 3 3 2 2 2 2 2 1 2 2 3 3 3 4 4 6 8 6 6 6 7 8 8 8 11 13 15 16 16 17 17 18 18 18 18
3 3 3 3 3 3 3 3 2 2 2 1 1 2 2 2 3 3 3 3 3 4 5 5 6 7 6 6 6 7 9 7 8 9 12 14 15 16 17 18 18 18 18
3 3 3 3 3 2 2 3 2 2 2 1 1 2 2 2 3 3 3 3 3 4 4 5 6 6 6 7 7 6 8 9 8 5 7 8 9 9 11 14 16 18 18
2 2 3 3 3 2 2 3 2 2 2 2 2 2 2 2 3 5 6 6 5 4 5 4 5 7 7 7 6 7 7 8 7 5 7 9 7 7 8 9 15 18 18
2 2 2 3 3 3 2 2 1 1 1 2 2 2 2 2 3 3 5 6 6 7 6 5 6 7 7 7 7 7 7 8 8 7 7 8 7 8 9 12 17 18 17
2 2 2 3 3 2 2 2 1 0 1 1 1 1 1 2 3 3 3 4 4 5 6 4 4 6 6 6 6 6 7 8 8 5 5 6 7 7 9 10 15 16 16
2 2 2 2 3 2 2 2 2 1 0 0 1 1 1 1 5 6 3 4 5 5 7 8 9 9 10 11 9 5 6 7 8 6 4 4 5 7 7 6 10 14 16
2 2 2 2 2 2 2 2 3 1 0 1 1 1 3 3 5 5 3 3 5 5 6 7 7 8 7 7 9 5 5 6 6 5 4 5 5 6 6 4 6 9 12
Wind_Direction
117 122 118 119 108 105 103 94 83 71 66 60 66 67 66 80 93 95 83 68 51 37 28 21 16 15 11 9 5 1 359 357 354 351 349 346 343 341 338 336 334 332 330
119 111 103 102 100 102 92 83 81 79 67 54 60 64 64 73 92 101 93 75 57 36 24 16 9 6 3 0 359 358 356 354 351 348 344 342 339 337 335 333 332 330 329
121 116 108 96 97 98 90 80 65 69 69 51 51 59 56 55 76 95 93 84 65 40 20 8 2 358 356 355 354 354 352 349 346 344 341 339 336 334 333 331 330 328 328
121 116 111 105 104 99 91 84 77 64 60 50 42 32 52 57 60 83 79 74 60 42 12 355 353 351 349 349 349 349 348 345 343 341 339 337 334 333 331 329 328 326 324
122 115 111 113 113 99 85 86 73 76 60 32 14 2 8 96 133 94 86 64 40 33 9 346 342 341 342 341 342 343 344 342 340 339 337 335 333 330 329 328 326 324 322
123 118 114 113 112 104 94 90 81 67 69 358 324 302 247 224 183 126 135 66 359 2 349 336 334 329 332 334 335 337 338 337 337 335 334 332 331 329 328 326 324 323 321
123 120 118 113 111 121 120 110 97 90 53 28 28 325 292 253 189 165 199 253 341 345 341 336 331 325 324 325 327 330 332 332 332 332 332 331 330 329 327 326 324 323 320
129 129 120 128 123 126 116 103 99 98 73 65 76 17 330 318 301 247 231 242 271 314 318 324 324 322 323 321 321 325 326 328 328 329 330 330 329 328 327 326 325 323 322
133 130 129 127 128 132 138 134 121 110 151 166 74 99 105 277 301 287 264 260 314 317 311 313 314 323 321 321 320 317 322 324 325 327 328 328 327 327 326 325 324 323 323
134 137 133 130 127 132 142 153 140 118 134 171 313 29 164 155 335 302 300 300 309 302 299 307 305 307 313 318 319 319 321 322 323 325 326 326 326 326 325 325 323 323 322
141 141 145 138 143 145 149 154 143 124 142 151 158 290 295 316 260 255 292 305 308 287 287 287 284 298 306 311 314 315 321 320 320 323 324 325 325 324 324 323 323 322 322
155 152 151 148 150 156 158 155 154 153 157 149 130 108 135 203 283 271 284 302 301 290 287 280 280 299 312 313 319 320 318 318 319 322 323 323 323 323 322 323 322 322 321
168 170 160 163 163 164 157 154 156 171 168 158 161 194 250 255 288 299 296 299 303 299 285 277 279 296 312 319 320 318 317 318 318 319 321 322 323 323 323 322 322 322 323
172 166 163 164 165 160 160 162 161 173 151 160 165 159 288 306 314 295 279 303 313 306 295 285 298 294 321 318 315 318 317 317 317 317 319 320 321 323 323 323 323 323 324
158 152 156 163 161 160 168 169 170 174 153 157 175 194 240 294 315 307 297 282 279 300 302 293 310 309 320 315 314 318 314 316 318 316 317 318 320 322 323 323 324 324 323
145 150 159 161 161 165 168 160 163 158 153 177 183 183 242 270 305 312 312 306 279 270 284 297 305 311 318 319 318 319 313 318 318 317 316 318 319 319 321 323 324 324 324
150 156 162 164 166 170 162 159 169 158 165 182 185 194 272 313 306 295 293 293 291 284 285 299 306 314 317 316 320 317 315 312 314 317 319 319 319 319 320 323 325 324 325
152 156 160 161 163 168 167 165 170 171 177 192 210 219 266 296 287 287 285 284 287 288 290 301 309 315 314 315 317 316 319 318 315 314 319 322 322 322 322 323 325 325 324
145 144 149 156 162 166 163 160 169 177 184 196 207 221 246 255 274 292 294 290 291 301 296 298 304 311 312 322 323 320 318 315 317 317 320 321 322 324 324 325 326 326 326
138 142 147 143 146 151 151 151 160 172 188 201 220 232 247 252 259 277 285 285 293 297 297 298 303 311 315 322 326 324 322 321 318 319 321 320 320 322 323 323 325 326 326
129 139 134 126 126 141 145 143 155 173 187 201 236 247 259 281 303 301 302 300 301 298 304 306 305 312 318 329 326 323 320 320 315 315 321 318 318 317 320 320 323 326 328
110 118 125 126 129 129 128 130 144 183 191 206 230 248 263 268 294 309 316 318 315 308 307 303 303 310 312 315 317 322 323 328 320 324 324 313 317 312 316 317 323 328 330
124 128 137 132 136 135 134 136 104 142 205 218 228 247 283 306 315 297 311 318 316 314 310 298 298 304 308 313 315 317 320 320 308 312 319 305 310 308 316 319 325 330 332
131 132 138 137 136 133 113 108 98 100 205 225 240 240 271 305 316 325 315 315 312 311 311 310 293 298 307 311 311 311 308 311 305 304 316 301 309 308 312 314 322 331 334
117 112 118 128 128 126 109 81 66 170 164 346 349 351 334 310 326 338 334 318 320 322 325 322 319 317 319 324 331 329 326 325 318 311 318 310 309 312 304 300 321 331 334
125 118 110 116 120 124 109 78 47 109 63 9 356 353 345 338 333 340 335 321 320 324 331 333 331 332 332 332 336 334 321 319 316 308 317 326 315 327 318 300 315 331 334
Height
1538 1540 1541 1542 1543 1544 1544 1544 1545 1545 1546 1546 1546 1546 1546 1545 1544 1544 1543 1542 1541 1540 1539 1537 1536 1534 1532 1531 1529 1526 1524 1522 1520 1518 1516 1513 1511 1509 1506 1504 1502 1499 1497
1538 1539 1540 1541 1542 1543 1543 1544 1544 1544 1545 1545 1545 1545 1545 1545 1544 1543 1542 1541 1540 1539 1538 1536 1535 1533 1531 1529 1527 1525 1523 1520 1518 1516 1514 1511 1509 1506 1504 1501 1499 1496 1494
1537 1538 1540 1540 1541 1542 1543 1543 1544 1544 1544 1544 1544 1544 1544 1544 1543 1542 1541 1540 1539 1538 1536 1535 1533 1531 1529 1528 1526 1523 1521 1518 1516 1514 1511 1509 1506 1503 1501 1498 1496 1493 1490
1536 1537 1539 1540 1540 1541 1542 1542 1543 1542 1543 1543 1543 1543 1543 1542 1542 1541 1540 1539 1538 1536 1535 1533 1531 1530 1528 1526 1524 1521 1519 1517 1514 1511 1509 1506 1503 1501 1498 1495 1492 1490 1487
1535 1536 1537 1538 1539 1540 1541 1541 1542 1542 1542 1542 1542 1541 1541 1541 1540 1539 1539 1537 1536 1534 1533 1531 1530 1528 1526 1524 1521 1519 1517 1514 1512 1509 1506 1503 1500 1497 1495 1492 1489 1486 1483
1533 1534 1536 1537 1538 1539 1539 1540 1540 1540 1540 1540 1540 1540 1539 1539 1538 1537 1537 1535 1534 1533 1531 1529 1527 1526 1524 1521 1519 1517 1514 1512 1509 1506 1503 1500 1497 1494 1491 1488 1485 1482 1479
1531 1533 1534 1535 1536 1537 1538 1538 1538 1539 1539 1538 1538 1537 1537 1537 1536 1535 1535 1533 1532 1531 1529 1527 1525 1523 1521 1519 1517 1514 1512 1509 1506 1503 1500 1497 1494 1491 1488 1484 1481 1478 1475
1529 1531 1532 1533 1534 1535 1536 1536 1536 1537 1537 1537 1536 1536 1535 1535 1534 1533 1532 1531 1530 1528 1527 1525 1523 1521 1519 1516 1514 1512 1509 1506 1503 1500 1497 1494 1490 1487 1484 1481 1477 1474 1470
1527 1529 1530 1531 1532 1533 1534 1534 1534 1534 1535 1535 1535 1535 1534 1533 1531 1531 1530 1529 1528 1526 1524 1522 1520 1518 1516 1514 1511 1509 1506 1503 1500 1497 1494 1490 1487 1484 1480 1476 1473 1469 1466
1525 1526 1528 1529 1530 1531 1531 1532 1532 1532 1533 1533 1533 1533 1533 1532 1531 1528 1528 1527 1525 1524 1522 1520 1518 1515 1513 1511 1508 1506 1503 1500 1497 1494 1490 1487 1483 1480 1476 1472 1468 1465 1461
1522 1524 1525 1526 1527 1528 1529 1529 1530 1530 1530 1531 1530 1530 1530 1530 1529 1528 1524 1523 1522 1521 1519 1517 1515 1513 1511 1508 1505 1503 1500 1497 1493 1490 1486 1483 1479 1475 1472 1468 1464 1460 1456
1519 1521 1522 1524 1524 1525 1526 1527 1527 1528 1528 1528 1528 1528 1528 1528 1527 1525 1523 1520 1519 1517 1516 1514 1512 1510 1508 1505 1502 1500 1496 1493 1490 1486 1483 1479 1475 1471 1467 1463 1459 1455 1452
1516 1518 1519 1520 1521 1522 1523 1524 1524 1525 1525 1525 1525 1525 1525 1525 1524 1523 1521 1519 1516 1514 1512 1511 1509 1507 1505 1502 1499 1496 1492 1489 1486 1482 1479 1475 1471 1467 1463 1459 1455 1451 1447
1512 1514 1516 1517 1518 1519 1520 1521 1521 1522 1522 1522 1522 1522 1522 1522 1522 1520 1519 1517 1513 1511 1509 1508 1506 1504 1501 1498 1495 1492 1488 1485 1482 1478 1475 1471 1467 1463 1459 1455 1451 1447 1443
1509 1511 1512 1514 1515 1516 1517 1518 1518 1519 1519 1519 1519 1519 1519 1519 1518 1518 1517 1515 1514 1510 1506 1504 1503 1500 1498 1495 1491 1488 1484 1481 1478 1474 1470 1467 1463 1459 1455 1451 1446 1442 1438
1506 1508 1509 1511 1512 1513 1514 1515 1515 1516 1516 1516 1516 1516 1516 1516 1515 1514 1514 1513 1511 1510 1506 1502 1500 1497 1494 1491 1488 1484 1481 1477 1473 1470 1466 1463 1459 1455 1451 1446 1442 1438 1434
1502 1504 1506 1507 1508 1510 1511 1511 1512 1513 1513 1513 1513 1513 1513 1513 1512 1511 1510 1509 1508 1507 1503 1499 1497 1494 1491 1487 1484 1480 1477 1473 1469 1466 1462 1458 1454 1450 1446 1442 1438 1434 1430
1499 1500 1502 1504 1505 1506 1507 1508 1509 1509 1509 1510 1510 1510 1509 1509 1509 1508 1507 1506 1505 1503 1501 1496 1493 1490 1487 1484 1480 1476 1472 1469 1465 1462 1458 1454 1450 1446 1442 1438 1434 1430 1426
1495 1497 1498 1500 1502 1503 1504 1504 1505 1505 1506 1506 1506 1506 1506 1506 1505 1505 1504 1502 1501 1500 1497 1494 1490 1487 1483 1480 1476 1472 1469 1465 1461 1458 1454 1450 1447 1442 1438 1434 1430 1426 1422
1492 1493 1495 1497 1498 1500 1500 1501 1502 1502 1503 1503 1503 1503 1503 1503 1502 1502 1500 1499 1498 1496 1493 1490 1487 1483 1480 1476 1473 1468 1463 1460 1457 1454 1450 1446 1443 1439 1434 1430 1426 1422 1417
1489 1491 1492 1493 1495 1496 1497 1498 1499 1499 1500 1500 1500 1500 1500 1500 1499 1499 1497 1496 1494 1492 1490 1487 1484 1480 1477 1473 1469 1465 1461 1457 1453 1450 1445 1442 1439 1434 1430 1426 1422 1418 1414
1486 1487 1489 1490 1492 1493 1494 1495 1496 1497 1497 1497 1497 1497 1497 1496 1496 1495 1494 1493 1491 1489 1486 1484 1481 1477 1474 1471 1468 1463 1459 1454 1449 1447 1443 1438 1435 1431 1427 1423 1419 1415 1410
1483 1484 1486 1487 1489 1490 1491 1492 1493 1493 1493 1493 1494 1494 1493 1493 1492 1491 1490 1489 1487 1486 1484 1482 1478 1475 1472 1469 1465 1461 1457 1453 1449 1445 1440 1435 1432 1428 1424 1420 1416 1412 1407
1480 1482 1483 1484 1486 1487 1488 1489 1490 1490 1490 1490 1490 1490 1490 1489 1489 1488 1486 1485 1483 1482 1480 1477 1475 1473 1470 1467 1464 1460 1456 1451 1447 1444 1440 1433 1428 1425 1421 1417 1413 1409 1404
1478 1479 1480 1482 1483 1484 1486 1487 1487 1487 1487 1487 1487 1487 1487 1486 1486 1485 1483 1481 1480 1478 1476 1475 1473 1470 1467 1464 1461 1457 1453 1448 1443 1440 1438 1433 1427 1422 1417 1413 1410 1406 1402
1475 1476 1478 1479 1481 1482 1483 1484 1484 1484 1484 1484 1484 1484 1484 1483 1482 1481 1480 1478 1476 1474 1472 1470 1468 1466 1464 1461 1458 1455 1452 1448 1443 1438 1435 1432 1426 1421 1414 1410 1408 1404 1399